Change the Weather History Date:

Saturday, January 31, 2009

  Actual Average Record
Temperature  
Mean Temperature 16 °F -  
Max Temperature 30 °F 31 °F 53 °F (2012)
Min Temperature 1 °F 16 °F -6 °F (1971)
Degree Days  
Heating Degree Days 50    
Moisture  
Dew Point 10 °F    
Average Humidity 79    
Maximum Humidity 92    
Minimum Humidity 68    
Precipitation  
Precipitation 0.00 in - - ()
Sea Level Pressure  
Sea Level Pressure 29.94 in    
Wind  
Wind Speed 9 mph (SSW)    
Max Wind Speed 20 mph    
Max Gust Speed 24 mph    
Visibility 9 miles    
Events Snow    
Averages and records for this station are not official NWS values.
T = Trace of Precipitation, MM = Missing Value Source: NWS Daily Summary

Daily Weather History Graph

Daily Weather History Graph

Search for Another Location

Airport or City:

Trip Planner

Search our weather history database for the weather conditions in past years. The results will help you decide how hot, cold, wet, or windy it might be!

Date:

Astronomy

Jan. 31, 2009 Rise Set
Actual Time 7:55 AM EST 5:56 PM EST
Civil Twilight 7:26 AM EST 6:26 PM EST
Nautical Twilight 6:52 AM EST 6:59 PM EST
Astronomical Twilight 6:20 AM EST 7:32 PM EST
Moon 10:04 AM EST (1/31) 11:50 PM EST (1/31)
Length of Visible Light 10h 59m
Length of Day
10h 00m
Waxing Crescent, 27% of the Moon is Illuminated
Jan 31
Waxing Crescent
Feb 2
First Quarter
Feb 9
Full
Feb 16
Last Quarter
Feb 24
New

Hourly Weather History & Observations

Time (EST) Temp. Windchill Dew Point Humidity Pressure Visibility Wind Dir Wind Speed Gust Speed Precip Events Conditions
12:17 AM 12.2 °F 1.7 °F 8.6 °F 85% 30.07 in 2.5 mi SSW 6.9 mph - N/A Snow Light Snow
12:36 AM 12.2 °F 2.9 °F 8.6 °F 85% 30.07 in 4.0 mi SW 5.8 mph - N/A Snow Light Snow
12:55 AM 12.2 °F 4.3 °F 8.6 °F 85% 30.07 in 3.0 mi SW 4.6 mph - N/A Snow Light Snow
1:17 AM 12.2 °F 1.7 °F 8.6 °F 85% 30.07 in 4.0 mi SW 6.9 mph - N/A Snow Light Snow
1:37 AM 12.2 °F 1.7 °F 8.6 °F 85% 30.07 in 5.0 mi SW 6.9 mph - N/A Snow Light Snow
1:55 AM 12.2 °F 1.7 °F 8.6 °F 85% 30.06 in 5.0 mi SW 6.9 mph - N/A Snow Light Snow
2:17 AM 12.2 °F 1.7 °F 8.6 °F 85% 30.06 in 7.0 mi SSW 6.9 mph - N/A Snow Light Snow
2:37 AM 10.4 °F -0.4 °F 8.6 °F 92% 30.06 in 10.0 mi SSW 6.9 mph - N/A Snow Light Snow
2:55 AM 10.4 °F -0.4 °F 6.8 °F 85% 30.06 in 10.0 mi SSW 6.9 mph - N/A Snow Light Snow
3:17 AM 8.6 °F -2.6 °F 3.2 °F 79% 30.07 in 10.0 mi SSW 6.9 mph - N/A Snow Light Snow
3:37 AM 6.8 °F -4.8 °F 3.2 °F 85% 30.06 in 10.0 mi SSW 6.9 mph - N/A   Scattered Clouds
3:55 AM 5.0 °F -9.1 °F 3.2 °F 92% 30.04 in 10.0 mi South 9.2 mph - N/A   Clear
4:17 AM 5.0 °F -8.1 °F 1.4 °F 85% 30.03 in 10.0 mi SSW 8.1 mph - N/A   Clear
4:37 AM 3.2 °F -10.3 °F -0.4 °F 85% 30.05 in 10.0 mi SSW 8.1 mph - N/A   Clear
4:55 AM 3.2 °F -10.3 °F -0.4 °F 85% 30.04 in 10.0 mi SSW 8.1 mph - N/A   Clear
5:17 AM 3.2 °F -10.3 °F -0.4 °F 85% 30.04 in 10.0 mi SSW 8.1 mph - N/A   Clear
5:37 AM 1.4 °F -12.5 °F -2.2 °F 85% 30.04 in 10.0 mi SSW 8.1 mph - N/A   Clear
5:55 AM 1.4 °F -12.5 °F -0.4 °F 92% 30.04 in 10.0 mi South 8.1 mph - N/A   Scattered Clouds
6:17 AM 3.2 °F -10.3 °F 1.4 °F 92% 30.04 in 10.0 mi SSW 8.1 mph - N/A   Overcast
6:37 AM 5.0 °F -8.1 °F 1.4 °F 85% 30.04 in 10.0 mi SSW 8.1 mph - N/A   Overcast
6:55 AM 5.0 °F -8.1 °F 1.4 °F 85% 30.03 in 10.0 mi South 8.1 mph - N/A   Overcast
7:17 AM 5.0 °F -8.1 °F 1.4 °F 85% 30.02 in 10.0 mi South 8.1 mph - N/A   Overcast
7:37 AM 5.0 °F -9.1 °F 1.4 °F 85% 30.02 in 10.0 mi South 9.2 mph - N/A   Overcast
7:55 AM 5.0 °F -8.1 °F 1.4 °F 85% 30.02 in 10.0 mi SSW 8.1 mph - N/A   Overcast
8:17 AM 6.8 °F -5.9 °F 1.4 °F 79% 30.01 in 10.0 mi SSW 8.1 mph - N/A   Overcast
8:55 AM 8.6 °F -4.7 °F 3.2 °F 79% 30.02 in 10.0 mi SSW 9.2 mph - N/A   Overcast
9:37 AM 10.4 °F -1.5 °F 5.0 °F 79% 30.02 in 10.0 mi South 8.1 mph - N/A   Overcast
9:55 AM 12.2 °F -1.0 °F 5.0 °F 73% 30.01 in 10.0 mi South 10.4 mph - N/A   Overcast
10:17 AM 12.2 °F -1.8 °F 6.8 °F 79% 30.00 in 10.0 mi South 11.5 mph - N/A   Overcast
10:37 AM 14.0 °F 0.5 °F 6.8 °F 73% 30.00 in 10.0 mi SSW 11.5 mph - N/A   Overcast
10:55 AM 14.0 °F -0.2 °F 8.6 °F 79% 29.98 in 10.0 mi SSW 12.7 mph - N/A   Overcast
11:17 AM 15.8 °F 0.9 °F 8.6 °F 73% 29.97 in 10.0 mi SSW 15.0 mph 18.4 mph N/A   Overcast
11:37 AM 17.6 °F 3.7 °F 8.6 °F 68% 29.96 in 10.0 mi SSW 13.8 mph - N/A   Overcast
11:55 AM 17.6 °F 4.3 °F 10.4 °F 73% 29.94 in 10.0 mi SSW 12.7 mph 18.4 mph N/A   Overcast
12:17 PM 19.4 °F 6.0 °F 10.4 °F 68% 29.92 in 10.0 mi SSW 13.8 mph - N/A   Overcast
12:37 PM 19.4 °F 6.0 °F 12.2 °F 74% 29.91 in 10.0 mi SSW 13.8 mph - N/A   Overcast
12:57 PM 21.2 °F 8.3 °F 14.0 °F 74% 29.89 in 10.0 mi SSW 13.8 mph 20.7 mph N/A   Overcast
1:17 PM 23.0 °F 10.1 °F 14.0 °F 68% 29.87 in 10.0 mi SSW 15.0 mph - N/A   Overcast
1:37 PM 23.0 °F 8.7 °F 15.8 °F 74% 29.85 in 10.0 mi SSW 18.4 mph 24.2 mph N/A   Mostly Cloudy
1:55 PM 24.8 °F 11.9 °F 17.6 °F 74% 29.83 in 10.0 mi SSW 16.1 mph 23.0 mph N/A   Scattered Clouds
2:16 PM 26.6 °F 14.7 °F 17.6 °F 69% 29.83 in 10.0 mi SSW 15.0 mph - N/A   Mostly Cloudy
2:55 PM 28.4 °F 15.4 °F 19.4 °F 69% 29.79 in 10.0 mi SSW 19.6 mph 24.2 mph N/A   Clear
3:37 PM 30.2 °F 18.1 °F 21.2 °F 69% 29.75 in 10.0 mi SSW 18.4 mph - N/A   Clear
3:55 PM 30.2 °F 18.5 °F 21.2 °F 69% 29.74 in 10.0 mi South 17.3 mph - N/A   Clear
4:17 PM 30.2 °F 18.1 °F 21.2 °F 69% 29.73 in 10.0 mi SSW 18.4 mph 24.2 mph N/A   Clear
5:17 PM 30.2 °F 18.9 °F 23.0 °F 75% 29.71 in 10.0 mi SSW 16.1 mph 20.7 mph N/A   Clear
5:37 PM 30.2 °F 19.3 °F 23.0 °F 75% 29.69 in 10.0 mi SSW 15.0 mph 20.7 mph N/A   Clear
5:55 PM 30.2 °F 18.9 °F 23.0 °F 75% 29.68 in 10.0 mi SSW 16.1 mph - N/A   Clear
6:17 PM 30.2 °F 18.5 °F 23.0 °F 75% 29.68 in 10.0 mi SSW 17.3 mph 24.2 mph N/A   Clear
6:37 PM 30.2 °F 19.3 °F 23.0 °F 75% 29.69 in 10.0 mi SSW 15.0 mph 20.7 mph N/A   Clear
6:55 PM 30.2 °F 19.3 °F 23.0 °F 75% 29.69 in 10.0 mi SSW 15.0 mph - N/A   Clear
7:17 PM 30.2 °F 18.9 °F 24.8 °F 80% 29.68 in 10.0 mi SSW 16.1 mph - N/A   Clear
7:37 PM 30.2 °F 19.3 °F 24.8 °F 80% 29.68 in 10.0 mi SSW 15.0 mph - N/A   Clear
7:55 PM 30.2 °F 18.5 °F 24.8 °F 80% 29.67 in 10.0 mi SSW 17.3 mph - N/A   Clear
8:17 PM 30.2 °F 18.9 °F 26.6 °F 86% 29.66 in 10.0 mi SSW 16.1 mph - N/A   Clear
8:57 PM 32.0 °F 20.5 °F 26.6 °F 80% 29.65 in 10.0 mi SSW 18.4 mph 24.2 mph N/A   Clear
9:17 PM 32.0 °F 20.8 °F 26.6 °F 80% 29.65 in 10.0 mi SSW 17.3 mph - N/A   Clear
9:36 PM 32.0 °F 21.6 °F 26.6 °F 80% 29.66 in 10.0 mi SSW 15.0 mph 25.3 mph N/A   Clear
9:55 PM 32.0 °F 22.1 °F 26.6 °F 80% 29.65 in 10.0 mi SSW 13.8 mph - N/A   Clear
10:17 PM 32.0 °F 21.6 °F 26.6 °F 80% 29.65 in 10.0 mi SSW 15.0 mph 23.0 mph N/A   Clear
10:37 PM 32.0 °F 20.8 °F 26.6 °F 80% 29.64 in 10.0 mi SSW 17.3 mph - N/A   Clear
10:55 PM 32.0 °F 20.8 °F 28.4 °F 87% 29.64 in 10.0 mi SSW 17.3 mph - N/A   Clear
11:17 PM 32.0 °F 21.6 °F 28.4 °F 87% 29.64 in 10.0 mi SSW 15.0 mph - N/A   Clear
11:37 PM 32.0 °F 21.6 °F 28.4 °F 87% 29.63 in 10.0 mi SSW 15.0 mph 23.0 mph N/A   Clear